PRIVATE WETTERSTATION BILLIGHEIM-ALLFELD                       ZURCK
Wetterdaten: Samstag, 10.06.2017
Datum Zeit Temp. A. Temp. A. min Temp. A. max Feuchte A. Luftdruck Regen Wind Richtung Richtung Sonnenschein ET Solar Taupunkt Windchill Windben Empfang
10.06.2017 00:00 12,2 C 12,2 C 12,4 C 91 % 1017,3 hPa 0,0 l/m 0,0 km/h (0 Bft) SO 135 0 min 0,000 mm 0 W/m 10,8 C 12,2 C 1,6 km/h (1 Bft) 100 %
10.06.2017 00:10 12,0 C 12,0 C 12,2 C 91 % 1017,4 hPa 0,0 l/m 0,0 km/h (0 Bft) N 0 0 min 0,000 mm 0 W/m 10,6 C 12,0 C 0,0 km/h (0 Bft) 100 %
10.06.2017 00:20 11,9 C 11,9 C 12,0 C 91 % 1017,3 hPa 0,0 l/m 0,0 km/h (0 Bft) N 0 0 min 0,000 mm 0 W/m 10,5 C 11,9 C 0,0 km/h (0 Bft) 100 %
10.06.2017 00:30 11,7 C 11,7 C 11,9 C 91 % 1017,4 hPa 0,0 l/m 0,0 km/h (0 Bft) N 0 0 min 0,000 mm 0 W/m 10,3 C 11,7 C 0,0 km/h (0 Bft) 100 %
10.06.2017 00:40 11,7 C 11,7 C 11,7 C 91 % 1017,4 hPa 0,0 l/m 0,0 km/h (0 Bft) N 0 0 min 0,000 mm 0 W/m 10,3 C 11,7 C 0,0 km/h (0 Bft) 100 %
10.06.2017 00:50 11,6 C 11,6 C 11,7 C 91 % 1017,5 hPa 0,0 l/m 0,0 km/h (0 Bft) N 0 0 min 0,000 mm 0 W/m 10,2 C 11,6 C 0,0 km/h (0 Bft) 100 %
10.06.2017 01:00 11,5 C 11,4 C 11,6 C 91 % 1017,5 hPa 0,0 l/m 0,0 km/h (0 Bft) SO 135 0 min 0,000 mm 0 W/m 10,1 C 11,5 C 1,6 km/h (1 Bft) 100 %
10.06.2017 01:10 11,6 C 11,5 C 11,6 C 91 % 1017,6 hPa 0,0 l/m 0,0 km/h (0 Bft) N 0 0 min 0,000 mm 0 W/m 10,2 C 11,6 C 0,0 km/h (0 Bft) 100 %
10.06.2017 01:20 11,6 C 11,6 C 11,6 C 91 % 1017,6 hPa 0,0 l/m 0,0 km/h (0 Bft) N 0 0 min 0,000 mm 0 W/m 10,2 C 11,6 C 0,0 km/h (0 Bft) 99 %
10.06.2017 01:30 11,7 C 11,6 C 11,7 C 91 % 1017,5 hPa 0,0 l/m 0,0 km/h (0 Bft) N 0 0 min 0,000 mm 0 W/m 10,3 C 11,7 C 0,0 km/h (0 Bft) 100 %
10.06.2017 01:40 11,6 C 11,6 C 11,7 C 91 % 1017,5 hPa 0,0 l/m 0,0 km/h (0 Bft) N 0 0 min 0,000 mm 0 W/m 10,2 C 11,6 C 0,0 km/h (0 Bft) 100 %
10.06.2017 01:50 11,6 C 11,5 C 11,6 C 91 % 1017,6 hPa 0,0 l/m 0,0 km/h (0 Bft) N 0 0 min 0,000 mm 0 W/m 10,2 C 11,6 C 0,0 km/h (0 Bft) 100 %
10.06.2017 02:00 11,7 C 11,6 C 11,7 C 91 % 1017,6 hPa 0,0 l/m 0,0 km/h (0 Bft) N 0 0 min 0,000 mm 0 W/m 10,3 C 11,7 C 0,0 km/h (0 Bft) 100 %
10.06.2017 02:10 11,7 C 11,7 C 11,7 C 91 % 1017,8 hPa 0,0 l/m 0,0 km/h (0 Bft) N 0 0 min 0,000 mm 0 W/m 10,3 C 11,7 C 0,0 km/h (0 Bft) 100 %
10.06.2017 02:20 11,5 C 11,5 C 11,7 C 91 % 1017,8 hPa 0,0 l/m 0,0 km/h (0 Bft) N 0 0 min 0,000 mm 0 W/m 10,1 C 11,5 C 0,0 km/h (0 Bft) 100 %
10.06.2017 02:30 11,6 C 11,5 C 11,6 C 91 % 1017,7 hPa 0,0 l/m 0,0 km/h (0 Bft) N 0 0 min 0,000 mm 0 W/m 10,2 C 11,6 C 0,0 km/h (0 Bft) 99 %
10.06.2017 02:40 11,7 C 11,6 C 11,8 C 91 % 1017,8 hPa 0,0 l/m 0,0 km/h (0 Bft) N 0 0 min 0,000 mm 0 W/m 10,3 C 11,7 C 0,0 km/h (0 Bft) 100 %
10.06.2017 02:50 11,9 C 11,7 C 11,9 C 91 % 1017,8 hPa 0,0 l/m 0,0 km/h (0 Bft) N 0 0 min 0,000 mm 0 W/m 10,5 C 11,9 C 0,0 km/h (0 Bft) 100 %
10.06.2017 03:00 12,2 C 11,9 C 12,2 C 91 % 1018,0 hPa 0,0 l/m 0,0 km/h (0 Bft) N 0 0 min 0,000 mm 0 W/m 10,8 C 12,2 C 0,0 km/h (0 Bft) 100 %
10.06.2017 03:10 12,3 C 12,2 C 12,3 C 91 % 1018,0 hPa 0,0 l/m 0,0 km/h (0 Bft) N 0 0 min 0,000 mm 0 W/m 10,9 C 12,3 C 0,0 km/h (0 Bft) 100 %
10.06.2017 03:20 12,4 C 12,3 C 12,4 C 91 % 1018,1 hPa 0,0 l/m 0,0 km/h (0 Bft) N 0 0 min 0,000 mm 0 W/m 11,0 C 12,4 C 0,0 km/h (0 Bft) 100 %
10.06.2017 03:30 12,4 C 12,4 C 12,4 C 91 % 1018,2 hPa 0,2 l/m 0,0 km/h (0 Bft) N 0 0 min 0,000 mm 0 W/m 11,0 C 12,4 C 0,0 km/h (0 Bft) 100 %
10.06.2017 03:40 12,4 C 12,4 C 12,4 C 91 % 1018,2 hPa 0,0 l/m 0,0 km/h (0 Bft) N 0 0 min 0,000 mm 0 W/m 11,0 C 12,4 C 0,0 km/h (0 Bft) 100 %
10.06.2017 03:50 12,4 C 12,4 C 12,4 C 91 % 1018,3 hPa 0,0 l/m 0,0 km/h (0 Bft) N 0 0 min 0,000 mm 0 W/m 11,0 C 12,4 C 0,0 km/h (0 Bft) 100 %
10.06.2017 04:00 12,3 C 12,3 C 12,4 C 91 % 1018,3 hPa 0,0 l/m 0,0 km/h (0 Bft) N 0 0 min 0,000 mm 0 W/m 10,9 C 12,3 C 0,0 km/h (0 Bft) 100 %
10.06.2017 04:10 12,3 C 12,3 C 12,3 C 91 % 1018,4 hPa 0,0 l/m 0,0 km/h (0 Bft) N 0 0 min 0,000 mm 0 W/m 10,9 C 12,3 C 0,0 km/h (0 Bft) 100 %
10.06.2017 04:20 12,2 C 12,2 C 12,3 C 91 % 1018,5 hPa 0,0 l/m 0,0 km/h (0 Bft) N 0 0 min 0,000 mm 0 W/m 10,8 C 12,2 C 0,0 km/h (0 Bft) 100 %
10.06.2017 04:30 12,2 C 12,2 C 12,2 C 91 % 1018,7 hPa 0,0 l/m 0,0 km/h (0 Bft) N 0 0 min 0,000 mm 0 W/m 10,8 C 12,2 C 0,0 km/h (0 Bft) 100 %
10.06.2017 04:40 12,0 C 12,0 C 12,2 C 91 % 1018,7 hPa 0,0 l/m 0,0 km/h (0 Bft) N 0 0 min 0,000 mm 0 W/m 10,6 C 12,0 C 0,0 km/h (0 Bft) 100 %
10.06.2017 04:50 12,0 C 12,0 C 12,0 C 91 % 1018,9 hPa 0,0 l/m 0,0 km/h (0 Bft) N 0 0 min 0,000 mm 0 W/m 10,6 C 12,0 C 0,0 km/h (0 Bft) 100 %
10.06.2017 05:00 12,0 C 11,9 C 12,0 C 91 % 1019,0 hPa 0,0 l/m 0,0 km/h (0 Bft) N 0 0 min 0,000 mm 0 W/m 10,6 C 12,0 C 0,0 km/h (0 Bft) 100 %
10.06.2017 05:10 12,0 C 11,9 C 12,0 C 91 % 1019,2 hPa 0,0 l/m 0,0 km/h (0 Bft) N 0 0 min 0,000 mm 0 W/m 10,6 C 12,0 C 0,0 km/h (0 Bft) 91 %
10.06.2017 05:20 12,0 C 11,9 C 12,0 C 91 % 1019,2 hPa 0,0 l/m 0,0 km/h (0 Bft) N 0 0 min 0,000 mm 0 W/m 10,6 C 12,0 C 0,0 km/h (0 Bft) 100 %
10.06.2017 05:30 12,0 C 11,9 C 12,0 C 91 % 1019,2 hPa 0,0 l/m 0,0 km/h (0 Bft) N 0 0 min 0,000 mm 0 W/m 10,6 C 12,0 C 0,0 km/h (0 Bft) 100 %
10.06.2017 05:40 12,0 C 11,9 C 12,0 C 91 % 1019,3 hPa 0,0 l/m 0,0 km/h (0 Bft) N 0 0 min 0,000 mm 7 W/m 10,6 C 12,0 C 0,0 km/h (0 Bft) 100 %
10.06.2017 05:50 11,9 C 11,9 C 12,0 C 91 % 1019,3 hPa 0,0 l/m 0,0 km/h (0 Bft) SO 135 0 min 0,000 mm 12 W/m 10,5 C 11,9 C 1,6 km/h (1 Bft) 100 %
10.06.2017 06:00 11,9 C 11,9 C 11,9 C 91 % 1019,4 hPa 0,0 l/m 0,0 km/h (0 Bft) N 0 0 min 0,000 mm 16 W/m 10,5 C 11,9 C 0,0 km/h (0 Bft) 100 %
10.06.2017 06:10 11,9 C 11,8 C 11,9 C 91 % 1019,5 hPa 0,0 l/m 0,0 km/h (0 Bft) N 0 0 min 0,000 mm 19 W/m 10,5 C 11,9 C 0,0 km/h (0 Bft) 100 %
10.06.2017 06:20 11,9 C 11,9 C 11,9 C 91 % 1019,6 hPa 0,0 l/m 0,0 km/h (0 Bft) N 0 0 min 0,000 mm 25 W/m 10,5 C 11,9 C 0,0 km/h (0 Bft) 100 %
10.06.2017 06:30 11,9 C 11,9 C 11,9 C 91 % 1019,6 hPa 0,0 l/m 0,0 km/h (0 Bft) N 0 0 min 0,000 mm 30 W/m 10,5 C 11,9 C 0,0 km/h (0 Bft) 100 %
10.06.2017 06:40 11,9 C 11,8 C 11,9 C 91 % 1019,6 hPa 0,0 l/m 1,6 km/h (1 Bft) SO 135 0 min 0,000 mm 39 W/m 10,5 C 11,9 C 4,8 km/h (1 Bft) 100 %
10.06.2017 06:50 11,9 C 11,8 C 11,9 C 91 % 1019,8 hPa 0,0 l/m 0,0 km/h (0 Bft) N 0 0 min 0,000 mm 47 W/m 10,5 C 11,9 C 0,0 km/h (0 Bft) 100 %
10.06.2017 07:00 12,0 C 11,9 C 12,0 C 91 % 1019,9 hPa 0,0 l/m 1,6 km/h (1 Bft) SO 135 0 min 0,025 mm 54 W/m 10,6 C 12,0 C 4,8 km/h (1 Bft) 100 %
10.06.2017 07:10 12,1 C 12,0 C 12,1 C 91 % 1019,9 hPa 0,0 l/m 0,0 km/h (0 Bft) SO 135 0 min 0,000 mm 65 W/m 10,7 C 12,1 C 1,6 km/h (1 Bft) 100 %
10.06.2017 07:20 12,1 C 12,1 C 12,1 C 91 % 1020,1 hPa 0,0 l/m 0,0 km/h (0 Bft) SO 135 0 min 0,000 mm 79 W/m 10,7 C 12,1 C 3,2 km/h (1 Bft) 100 %
10.06.2017 07:30 12,2 C 12,1 C 12,2 C 91 % 1020,3 hPa 0,0 l/m 0,0 km/h (0 Bft) N 0 0 min 0,000 mm 81 W/m 10,8 C 12,2 C 0,0 km/h (0 Bft) 100 %
10.06.2017 07:40 12,3 C 12,2 C 12,3 C 91 % 1020,4 hPa 0,0 l/m 0,0 km/h (0 Bft) SO 135 0 min 0,000 mm 79 W/m 10,9 C 12,3 C 3,2 km/h (1 Bft) 100 %
10.06.2017 07:50 12,4 C 12,3 C 12,4 C 91 % 1020,4 hPa 0,0 l/m 0,0 km/h (0 Bft) N 0 0 min 0,000 mm 97 W/m 11,0 C 12,4 C 0,0 km/h (0 Bft) 100 %
10.06.2017 08:00 12,5 C 12,4 C 12,5 C 91 % 1020,5 hPa 0,0 l/m 0,0 km/h (0 Bft) S-SO 157 0 min 0,051 mm 100 W/m 11,1 C 12,5 C 3,2 km/h (1 Bft) 100 %
10.06.2017 08:10 12,7 C 12,5 C 12,7 C 94 % 1020,4 hPa 0,0 l/m 1,6 km/h (1 Bft) S 180 0 min 0,000 mm 109 W/m 11,8 C 12,7 C 4,8 km/h (1 Bft) 100 %
10.06.2017 08:20 12,8 C 12,7 C 12,8 C 91 % 1020,5 hPa 0,0 l/m 0,0 km/h (0 Bft) S 180 0 min 0,000 mm 116 W/m 11,4 C 12,8 C 1,6 km/h (1 Bft) 99 %
10.06.2017 08:30 12,8 C 12,8 C 12,9 C 91 % 1020,5 hPa 0,0 l/m 0,0 km/h (0 Bft) S 180 0 min 0,000 mm 139 W/m 11,4 C 12,8 C 4,8 km/h (1 Bft) 100 %
10.06.2017 08:40 13,0 C 12,8 C 13,0 C 91 % 1020,5 hPa 0,0 l/m 1,6 km/h (1 Bft) S 180 10 min 0,000 mm 162 W/m 11,6 C 13,0 C 6,4 km/h (2 Bft) 100 %
10.06.2017 08:50 13,0 C 12,9 C 13,0 C 91 % 1020,5 hPa 0,0 l/m 0,0 km/h (0 Bft) S 180 10 min 0,000 mm 153 W/m 11,6 C 13,0 C 3,2 km/h (1 Bft) 100 %
10.06.2017 09:00 13,0 C 13,0 C 13,1 C 91 % 1020,7 hPa 0,0 l/m 1,6 km/h (1 Bft) S 180 10 min 0,076 mm 156 W/m 11,6 C 13,0 C 6,4 km/h (2 Bft) 100 %
10.06.2017 09:10 13,2 C 13,0 C 13,2 C 91 % 1020,8 hPa 0,0 l/m 4,8 km/h (1 Bft) S-SW 202 10 min 0,000 mm 160 W/m 11,8 C 13,2 C 8,0 km/h (2 Bft) 91 %
10.06.2017 09:20 13,2 C 13,2 C 13,2 C 91 % 1020,8 hPa 0,0 l/m 1,6 km/h (1 Bft) S 180 10 min 0,000 mm 165 W/m 11,8 C 13,2 C 6,4 km/h (2 Bft) 100 %
10.06.2017 09:30 13,4 C 13,2 C 13,4 C 91 % 1021,0 hPa 0,0 l/m 1,6 km/h (1 Bft) S 180 10 min 0,000 mm 172 W/m 12,0 C 13,4 C 9,7 km/h (2 Bft) 100 %
10.06.2017 09:40 13,4 C 13,4 C 13,4 C 91 % 1021,1 hPa 0,0 l/m 4,8 km/h (1 Bft) S-SO 157 10 min 0,000 mm 251 W/m 12,0 C 13,4 C 8,0 km/h (2 Bft) 100 %
10.06.2017 09:50 13,3 C 13,3 C 13,4 C 91 % 1021,1 hPa 0,0 l/m 3,2 km/h (1 Bft) S-SO 157 10 min 0,000 mm 225 W/m 11,9 C 13,3 C 8,0 km/h (2 Bft) 100 %
10.06.2017 10:00 13,3 C 13,2 C 13,3 C 91 % 1021,2 hPa 0,0 l/m 1,6 km/h (1 Bft) O-SO 112 10 min 0,102 mm 258 W/m 11,9 C 13,3 C 8,0 km/h (2 Bft) 100 %
10.06.2017 10:10 13,7 C 13,3 C 13,7 C 91 % 1021,4 hPa 0,0 l/m 3,2 km/h (1 Bft) SO 135 10 min 0,000 mm 304 W/m 12,3 C 13,7 C 8,0 km/h (2 Bft) 100 %
10.06.2017 10:20 13,6 C 13,6 C 13,7 C 91 % 1021,4 hPa 0,0 l/m 4,8 km/h (1 Bft) SO 135 10 min 0,000 mm 264 W/m 12,2 C 13,6 C 8,0 km/h (2 Bft) 100 %
10.06.2017 10:30 13,8 C 13,6 C 13,8 C 91 % 1021,5 hPa 0,0 l/m 3,2 km/h (1 Bft) S 180 10 min 0,000 mm 320 W/m 12,4 C 13,8 C 6,4 km/h (2 Bft) 100 %
10.06.2017 10:40 14,1 C 13,8 C 14,1 C 91 % 1021,5 hPa 0,0 l/m 0,0 km/h (0 Bft) S-SO 157 10 min 0,000 mm 283 W/m 12,7 C 14,1 C 1,6 km/h (1 Bft) 100 %
10.06.2017 10:50 14,5 C 14,1 C 14,5 C 91 % 1021,6 hPa 0,0 l/m 0,0 km/h (0 Bft) S-SO 157 10 min 0,000 mm 443 W/m 13,0 C 14,5 C 1,6 km/h (1 Bft) 100 %
10.06.2017 11:00 14,7 C 14,1 C 14,7 C 91 % 1021,6 hPa 0,0 l/m 0,0 km/h (0 Bft) S 188 10 min 0,152 mm 362 W/m 13,2 C 14,7 C 0,0 km/h (0 Bft) 99 %
10.06.2017 11:10 15,1 C 14,7 C 15,1 C 91 % 1021,7 hPa 0,0 l/m 2,6 km/h (1 Bft) W-SW 241 10 min 0,000 mm 490 W/m 13,6 C 15,1 C 8,0 km/h (2 Bft) 100 %
10.06.2017 11:20 15,3 C 15,1 C 15,3 C 91 % 1021,9 hPa 0,0 l/m 3,3 km/h (1 Bft) W-NW 296 10 min 0,000 mm 346 W/m 13,8 C 15,3 C 8,0 km/h (2 Bft) 100 %
10.06.2017 11:30 15,4 C 15,3 C 15,4 C 91 % 1022,0 hPa 0,0 l/m 3,6 km/h (1 Bft) W 265 10 min 0,000 mm 309 W/m 13,9 C 15,4 C 9,7 km/h (2 Bft) 100 %
10.06.2017 11:40 16,1 C 15,4 C 16,1 C 91 % 1021,9 hPa 0,0 l/m 3,0 km/h (1 Bft) W 271 10 min 0,000 mm 868 W/m 14,6 C 16,1 C 8,0 km/h (2 Bft) 100 %
10.06.2017 11:50 17,3 C 16,1 C 17,3 C 91 % 1021,8 hPa 0,0 l/m 0,0 km/h (0 Bft) W 271 10 min 0,000 mm 946 W/m 15,8 C 17,3 C 1,6 km/h (1 Bft) 100 %
10.06.2017 12:00 17,7 C 17,3 C 17,7 C 88 % 1021,8 hPa 0,0 l/m 0,6 km/h (0 Bft) W-SW 250 10 min 0,356 mm 937 W/m 15,7 C 17,7 C 8,0 km/h (2 Bft) 100 %
10.06.2017 12:10 18,3 C 17,7 C 18,3 C 87 % 1021,5 hPa 0,0 l/m 3,6 km/h (1 Bft) SW 236 10 min 0,000 mm 937 W/m 16,1 C 18,3 C 9,7 km/h (2 Bft) 100 %
10.06.2017 12:20 18,7 C 18,3 C 18,7 C 84 % 1021,5 hPa 0,0 l/m 0,1 km/h (0 Bft) SW 236 10 min 0,000 mm 248 W/m 15,9 C 18,7 C 4,8 km/h (1 Bft) 100 %
10.06.2017 12:30 19,1 C 18,7 C 19,1 C 79 % 1021,2 hPa 0,0 l/m 0,0 km/h (0 Bft) SW 234 10 min 0,000 mm 935 W/m 15,4 C 19,1 C 1,6 km/h (1 Bft) 100 %
10.06.2017 12:40 19,7 C 19,1 C 19,7 C 80 % 1021,2 hPa 0,0 l/m 3,6 km/h (1 Bft) SW 214 10 min 0,000 mm 949 W/m 16,1 C 19,7 C 11,3 km/h (2 Bft) 99 %
10.06.2017 12:50 19,9 C 19,7 C 20,0 C 71 % 1021,2 hPa 0,0 l/m 0,0 km/h (0 Bft) SW 214 10 min 0,000 mm 953 W/m 14,5 C 19,9 C 3,2 km/h (1 Bft) 100 %
10.06.2017 13:00 20,3 C 19,9 C 20,3 C 66 % 1021,3 hPa 0,0 l/m 3,4 km/h (1 Bft) S-SW 211 10 min 0,508 mm 974 W/m 13,7 C 20,3 C 11,3 km/h (2 Bft) 99 %
10.06.2017 13:10 20,7 C 20,3 C 20,7 C 68 % 1021,2 hPa 0,0 l/m 4,5 km/h (1 Bft) S-SW 208 10 min 0,000 mm 976 W/m 14,6 C 20,7 C 11,3 km/h (2 Bft) 99 %
10.06.2017 13:20 20,5 C 20,5 C 20,8 C 65 % 1021,2 hPa 0,0 l/m 4,9 km/h (1 Bft) S-SW 209 10 min 0,000 mm 993 W/m 13,7 C 20,5 C 16,1 km/h (3 Bft) 99 %
10.06.2017 13:30 20,7 C 20,5 C 20,7 C 66 % 1021,2 hPa 0,0 l/m 6,8 km/h (2 Bft) SW 229 10 min 0,000 mm 1005 W/m 14,1 C 20,5 C 16,1 km/h (3 Bft) 100 %
10.06.2017 13:40 20,5 C 20,5 C 20,8 C 59 % 1021,0 hPa 0,0 l/m 3,4 km/h (1 Bft) S-SO 154 10 min 0,000 mm 174 W/m 12,2 C 20,5 C 11,3 km/h (2 Bft) 100 %
10.06.2017 13:50 20,4 C 20,3 C 20,5 C 61 % 1021,1 hPa 0,0 l/m 7,4 km/h (2 Bft) SW 229 10 min 0,000 mm 939 W/m 12,6 C 20,0 C 16,1 km/h (3 Bft) 100 %
10.06.2017 14:00 20,8 C 20,4 C 20,8 C 54 % 1021,0 hPa 0,0 l/m 4,9 km/h (1 Bft) W-SW 258 10 min 0,508 mm 949 W/m 11,1 C 20,8 C 16,1 km/h (3 Bft) 100 %
10.06.2017 14:10 21,1 C 20,8 C 21,1 C 54 % 1021,0 hPa 0,0 l/m 3,1 km/h (1 Bft) W-SW 247 10 min 0,000 mm 981 W/m 11,4 C 21,1 C 9,7 km/h (2 Bft) 100 %
10.06.2017 14:20 21,1 C 21,1 C 21,1 C 59 % 1020,9 hPa 0,0 l/m 3,3 km/h (1 Bft) S 177 10 min 0,000 mm 925 W/m 12,8 C 21,1 C 9,7 km/h (2 Bft) 99 %
10.06.2017 14:30 21,2 C 21,1 C 21,2 C 57 % 1020,8 hPa 0,0 l/m 2,2 km/h (1 Bft) S-SW 213 10 min 0,000 mm 932 W/m 12,3 C 21,2 C 17,7 km/h (3 Bft) 99 %
10.06.2017 14:40 21,6 C 21,2 C 21,6 C 55 % 1020,9 hPa 0,0 l/m 5,9 km/h (2 Bft) SW 218 10 min 0,000 mm 926 W/m 12,2 C 21,6 C 17,7 km/h (3 Bft) 99 %
10.06.2017 14:50 21,8 C 21,6 C 21,8 C 54 % 1020,7 hPa 0,0 l/m 2,9 km/h (1 Bft) W-NW 288 10 min 0,000 mm 904 W/m 12,1 C 21,8 C 8,0 km/h (2 Bft) 97 %
10.06.2017 15:00 21,9 C 21,8 C 21,9 C 55 % 1020,6 hPa 0,0 l/m 4,2 km/h (1 Bft) SW 216 10 min 0,559 mm 891 W/m 12,4 C 21,9 C 14,5 km/h (3 Bft) 98 %
10.06.2017 15:10 22,3 C 21,9 C 22,3 C 56 % 1020,7 hPa 0,0 l/m 4,5 km/h (1 Bft) SW 232 10 min 0,000 mm 860 W/m 13,1 C 22,3 C 11,3 km/h (2 Bft) 97 %
10.06.2017 15:20 22,2 C 22,2 C 22,3 C 56 % 1020,4 hPa 0,0 l/m 2,0 km/h (1 Bft) NW 323 10 min 0,000 mm 410 W/m 13,0 C 22,2 C 11,3 km/h (2 Bft) 97 %
10.06.2017 15:30 22,6 C 22,2 C 22,6 C 55 % 1020,6 hPa 0,0 l/m 3,8 km/h (1 Bft) N-NW 327 10 min 0,000 mm 179 W/m 13,1 C 22,6 C 11,3 km/h (2 Bft) 97 %
10.06.2017 15:40 22,4 C 22,4 C 22,6 C 49 % 1020,4 hPa 0,0 l/m 2,1 km/h (1 Bft) SW 224 0 min 0,000 mm 120 W/m 11,2 C 22,4 C 9,7 km/h (2 Bft) 98 %
10.06.2017 15:50 22,2 C 22,2 C 22,4 C 57 % 1020,5 hPa 0,0 l/m 0,4 km/h (0 Bft) W-NW 294 10 min 0,000 mm 772 W/m 13,3 C 22,2 C 6,4 km/h (2 Bft) 97 %
10.06.2017 16:00 22,4 C 22,2 C 22,4 C 57 % 1020,4 hPa 0,0 l/m 1,5 km/h (1 Bft) NW 325 10 min 0,279 mm 810 W/m 13,5 C 22,4 C 8,0 km/h (2 Bft) 98 %
10.06.2017 16:10 22,5 C 22,3 C 22,5 C 56 % 1020,4 hPa 0,0 l/m 3,1 km/h (1 Bft) N-NW 340 10 min 0,000 mm 782 W/m 13,3 C 22,5 C 16,1 km/h (3 Bft) 97 %
10.06.2017 16:20 22,7 C 22,5 C 22,8 C 52 % 1020,3 hPa 0,0 l/m 2,5 km/h (1 Bft) N-NW 331 10 min 0,000 mm 666 W/m 12,3 C 22,7 C 9,7 km/h (2 Bft) 97 %
10.06.2017 16:30 22,7 C 22,7 C 22,8 C 57 % 1020,2 hPa 0,0 l/m 0,6 km/h (0 Bft) N 5 10 min 0,000 mm 334 W/m 13,7 C 22,7 C 4,8 km/h (1 Bft) 97 %
10.06.2017 16:40 22,5 C 22,5 C 22,7 C 55 % 1020,0 hPa 0,0 l/m 0,5 km/h (0 Bft) NW 317 0 min 0,000 mm 65 W/m 13,0 C 22,5 C 6,4 km/h (2 Bft) 97 %
10.06.2017 16:50 22,3 C 22,3 C 22,5 C 51 % 1020,0 hPa 0,0 l/m 2,4 km/h (1 Bft) SW 215 0 min 0,000 mm 62 W/m 11,7 C 22,3 C 8,0 km/h (2 Bft) 98 %
10.06.2017 17:00 22,1 C 22,1 C 22,3 C 53 % 1019,9 hPa 0,0 l/m 0,9 km/h (0 Bft) SW 215 0 min 0,254 mm 76 W/m 12,1 C 22,1 C 4,8 km/h (1 Bft) 97 %
10.06.2017 17:10 22,0 C 22,0 C 22,1 C 52 % 1019,9 hPa 0,0 l/m 4,5 km/h (1 Bft) NW 317 0 min 0,000 mm 105 W/m 11,7 C 22,0 C 11,3 km/h (2 Bft) 98 %
10.06.2017 17:20 22,0 C 22,0 C 22,0 C 53 % 1019,9 hPa 0,0 l/m 1,9 km/h (1 Bft) N-NW 343 0 min 0,000 mm 98 W/m 12,0 C 22,0 C 8,0 km/h (2 Bft) 97 %
10.06.2017 17:30 22,0 C 21,9 C 22,0 C 54 % 1019,8 hPa 0,0 l/m 1,5 km/h (1 Bft) N-NW 335 0 min 0,000 mm 72 W/m 12,3 C 22,0 C 8,0 km/h (2 Bft) 98 %
10.06.2017 17:40 22,1 C 22,0 C 22,1 C 49 % 1019,7 hPa 0,0 l/m 0,2 km/h (0 Bft) N-NO 33 0 min 0,000 mm 67 W/m 10,9 C 22,1 C 4,8 km/h (1 Bft) 97 %
10.06.2017 17:50 22,1 C 22,0 C 22,1 C 52 % 1019,7 hPa 0,0 l/m 0,7 km/h (0 Bft) W-NW 292 0 min 0,000 mm 60 W/m 11,8 C 22,1 C 8,0 km/h (2 Bft) 98 %
10.06.2017 18:00 22,2 C 22,1 C 22,2 C 50 % 1019,7 hPa 0,0 l/m 4,7 km/h (1 Bft) W-NW 296 0 min 0,076 mm 58 W/m 11,3 C 22,2 C 9,7 km/h (2 Bft) 98 %
10.06.2017 18:10 21,9 C 21,9 C 22,2 C 50 % 1019,6 hPa 0,0 l/m 1,4 km/h (1 Bft) W-SW 249 0 min 0,000 mm 70 W/m 11,0 C 21,9 C 8,0 km/h (2 Bft) 99 %
10.06.2017 18:20 21,3 C 21,3 C 21,9 C 57 % 1019,7 hPa 0,0 l/m 0,0 km/h (0 Bft) W-SW 250 10 min 0,000 mm 162 W/m 12,4 C 21,3 C 1,6 km/h (1 Bft) 100 %
10.06.2017 18:30 21,4 C 21,2 C 21,4 C 54 % 1019,6 hPa 0,2 l/m 0,0 km/h (0 Bft) W-SW 250 10 min 0,000 mm 169 W/m 11,7 C 21,4 C 0,0 km/h (0 Bft) 100 %
10.06.2017 18:40 21,7 C 21,4 C 21,8 C 55 % 1019,7 hPa 0,0 l/m 1,4 km/h (1 Bft) W-NW 296 0 min 0,000 mm 67 W/m 12,3 C 21,7 C 6,4 km/h (2 Bft) 100 %
10.06.2017 18:50 21,7 C 21,7 C 21,8 C 50 % 1019,7 hPa 0,0 l/m 0,0 km/h (0 Bft) W-NW 296 0 min 0,000 mm 46 W/m 10,8 C 21,7 C 0,0 km/h (0 Bft) 100 %
10.06.2017 19:00 21,6 C 21,6 C 21,7 C 53 % 1019,7 hPa 0,0 l/m 0,0 km/h (0 Bft) W-NW 296 0 min 0,077 mm 42 W/m 11,6 C 21,6 C 0,0 km/h (0 Bft) 100 %
10.06.2017 19:10 21,5 C 21,5 C 21,6 C 50 % 1019,8 hPa 0,0 l/m 0,9 km/h (0 Bft) NW 306 0 min 0,000 mm 44 W/m 10,6 C 21,5 C 6,4 km/h (2 Bft) 100 %
10.06.2017 19:20 21,3 C 21,3 C 21,5 C 52 % 1019,8 hPa 0,0 l/m 0,0 km/h (0 Bft) NW 306 0 min 0,000 mm 44 W/m 11,0 C 21,3 C 0,0 km/h (0 Bft) 100 %
10.06.2017 19:30 21,2 C 21,2 C 21,3 C 56 % 1019,8 hPa 0,0 l/m 0,0 km/h (0 Bft) NW 306 10 min 0,000 mm 160 W/m 12,1 C 21,2 C 1,6 km/h (1 Bft) 100 %
10.06.2017 19:40 20,9 C 20,9 C 21,2 C 56 % 1019,8 hPa 0,0 l/m 0,0 km/h (0 Bft) NW 306 0 min 0,000 mm 91 W/m 11,8 C 20,9 C 0,0 km/h (0 Bft) 100 %
10.06.2017 19:50 20,7 C 20,7 C 20,9 C 60 % 1019,8 hPa 0,0 l/m 0,0 km/h (0 Bft) NW 306 0 min 0,000 mm 30 W/m 12,7 C 20,7 C 0,0 km/h (0 Bft) 100 %
10.06.2017 20:00 20,4 C 20,4 C 20,7 C 60 % 1019,9 hPa 0,0 l/m 0,6 km/h (0 Bft) NW 304 0 min 0,050 mm 28 W/m 12,4 C 20,4 C 4,8 km/h (1 Bft) 100 %
10.06.2017 20:10 20,2 C 20,2 C 20,4 C 59 % 1019,7 hPa 0,0 l/m 0,9 km/h (0 Bft) NW 304 0 min 0,000 mm 25 W/m 11,9 C 20,2 C 4,8 km/h (1 Bft) 100 %
10.06.2017 20:20 20,1 C 20,1 C 20,2 C 58 % 1019,7 hPa 0,0 l/m 0,0 km/h (0 Bft) NW 304 0 min 0,000 mm 23 W/m 11,6 C 20,1 C 0,0 km/h (0 Bft) 100 %
10.06.2017 20:30 19,8 C 19,8 C 20,1 C 61 % 1019,7 hPa 0,0 l/m 0,0 km/h (0 Bft) NW 304 0 min 0,000 mm 19 W/m 12,1 C 19,8 C 0,0 km/h (0 Bft) 100 %
10.06.2017 20:40 19,6 C 19,6 C 19,8 C 61 % 1019,7 hPa 0,0 l/m 0,0 km/h (0 Bft) NW 304 0 min 0,000 mm 18 W/m 11,9 C 19,6 C 0,0 km/h (0 Bft) 100 %
10.06.2017 20:50 19,2 C 19,2 C 19,6 C 66 % 1019,7 hPa 0,0 l/m 0,0 km/h (0 Bft) NW 304 0 min 0,000 mm 14 W/m 12,7 C 19,2 C 0,0 km/h (0 Bft) 100 %
10.06.2017 21:00 18,7 C 18,7 C 19,2 C 65 % 1019,7 hPa 0,0 l/m 0,0 km/h (0 Bft) NW 304 0 min 0,026 mm 12 W/m 12,0 C 18,7 C 0,0 km/h (0 Bft) 100 %
10.06.2017 21:10 18,3 C 18,3 C 18,7 C 63 % 1019,9 hPa 0,0 l/m 0,0 km/h (0 Bft) N 0 0 min 0,000 mm 12 W/m 11,1 C 18,3 C 0,0 km/h (0 Bft) 100 %
10.06.2017 21:20 18,1 C 18,1 C 18,3 C 62 % 1019,8 hPa 0,0 l/m 0,0 km/h (0 Bft) N 0 0 min 0,000 mm 9 W/m 10,7 C 18,1 C 0,0 km/h (0 Bft) 100 %
10.06.2017 21:30 17,7 C 17,7 C 18,0 C 65 % 1019,8 hPa 0,0 l/m 0,0 km/h (0 Bft) N 0 0 min 0,000 mm 5 W/m 11,0 C 17,7 C 0,0 km/h (0 Bft) 100 %
10.06.2017 21:40 17,3 C 17,3 C 17,7 C 66 % 1019,9 hPa 0,0 l/m 0,0 km/h (0 Bft) N 0 0 min 0,000 mm 0 W/m 10,9 C 17,3 C 0,0 km/h (0 Bft) 100 %
10.06.2017 21:50 16,9 C 16,9 C 17,3 C 67 % 1019,9 hPa 0,0 l/m 0,0 km/h (0 Bft) N 0 0 min 0,000 mm 0 W/m 10,7 C 16,9 C 0,0 km/h (0 Bft) 100 %
10.06.2017 22:00 16,5 C 16,5 C 16,9 C 68 % 1020,0 hPa 0,0 l/m 0,0 km/h (0 Bft) N 0 0 min 0,000 mm 0 W/m 10,6 C 16,5 C 0,0 km/h (0 Bft) 100 %
10.06.2017 22:10 16,2 C 16,2 C 16,5 C 67 % 1020,1 hPa 0,0 l/m 0,0 km/h (0 Bft) N 0 0 min 0,000 mm 0 W/m 10,1 C 16,2 C 0,0 km/h (0 Bft) 100 %
10.06.2017 22:20 15,9 C 15,9 C 16,2 C 68 % 1020,1 hPa 0,0 l/m 0,0 km/h (0 Bft) N 0 0 min 0,000 mm 0 W/m 10,0 C 15,9 C 0,0 km/h (0 Bft) 100 %
10.06.2017 22:30 15,7 C 15,7 C 15,9 C 70 % 1020,4 hPa 0,0 l/m 0,0 km/h (0 Bft) N 0 0 min 0,000 mm 0 W/m 10,2 C 15,7 C 0,0 km/h (0 Bft) 100 %
10.06.2017 22:40 15,4 C 15,4 C 15,7 C 72 % 1020,5 hPa 0,0 l/m 0,0 km/h (0 Bft) N 0 0 min 0,000 mm 0 W/m 10,4 C 15,4 C 0,0 km/h (0 Bft) 100 %
10.06.2017 22:50 15,1 C 15,1 C 15,4 C 74 % 1020,6 hPa 0,0 l/m 0,0 km/h (0 Bft) N 0 0 min 0,000 mm 0 W/m 10,5 C 15,1 C 0,0 km/h (0 Bft) 100 %
10.06.2017 23:00 14,9 C 14,9 C 15,1 C 74 % 1020,5 hPa 0,0 l/m 0,0 km/h (0 Bft) N 0 0 min 0,025 mm 0 W/m 10,3 C 14,9 C 0,0 km/h (0 Bft) 99 %
10.06.2017 23:10 14,6 C 14,6 C 14,9 C 75 % 1020,6 hPa 0,0 l/m 0,0 km/h (0 Bft) N 0 0 min 0,000 mm 0 W/m 10,2 C 14,6 C 0,0 km/h (0 Bft) 100 %
10.06.2017 23:20 14,4 C 14,4 C 14,6 C 77 % 1020,6 hPa 0,0 l/m 0,0 km/h (0 Bft) N 0 0 min 0,000 mm 0 W/m 10,4 C 14,4 C 0,0 km/h (0 Bft) 100 %
10.06.2017 23:30 14,2 C 14,2 C 14,4 C 78 % 1020,6 hPa 0,0 l/m 0,0 km/h (0 Bft) N 0 0 min 0,000 mm 0 W/m 10,4 C 14,2 C 0,0 km/h (0 Bft) 100 %
10.06.2017 23:40 13,8 C 13,8 C 14,2 C 79 % 1020,7 hPa 0,0 l/m 0,0 km/h (0 Bft) N 0 0 min 0,000 mm 0 W/m 10,2 C 13,8 C 0,0 km/h (0 Bft) 100 %
10.06.2017 23:50 13,6 C 13,6 C 13,8 C 81 % 1020,8 hPa 0,0 l/m 0,0 km/h (0 Bft) N 0 0 min 0,000 mm 0 W/m 10,4 C 13,6 C 0,0 km/h (0 Bft) 100 %
_ Min-Zeit 01:00 01:00 01:00 15:40 00:00 - 00:00 - - - - - 22:20 01:00 00:10 09:10
Minimum _ 11,4 C 11,4 C 11,6 C 49 % 1017,3 hPa - 0,0 km/h (0 Bft) - - - - - 10,0 C 11,5 C 0,0 km/h (0 Bft) 91 %
_ Max-Zeit 16:20 16:30 16:20 08:10 11:30 03:30 13:50 - - 08:40 15:00 13:30 12:40 16:20 14:30 00:00
Maximum _ 22,8 C 22,7 C 22,8 C 94 % 1022,0 hPa 0,2 l/m 7,4 km/h
SW (2 Bft)
- - 10 min 0,559 mm 1005 W/m 16,1 C 22,7 C 17,7 km/h
SW (3 Bft)
100 %
Durchschnitt _ 16,2 C 16,1 C 16,3 C 76 % 1019,9 hPa #0,4 l/m 1,1 km/h (1 Bft) SW - #8:20 h #3,124 mm 323 W/m 11,7 C 16,2 C 3,9 km/h (1 Bft) 99 %
PRIVATE WETTERSTATION BILLIGHEIM-ALLFELD - www.neckar-odenwald-wetter.de - Holger Sonntag